| time (UTC) | temp F | wind direction | speed MPH | gust MPH | rain 1hr in | rain 24hr in | rain mn in | humidity % | barometer mb |
| 20260507011020 | 59 | 273 | 10.0 | 13.0 | 0.00 | 0.28 | 0.28 | 90 | 1011.9 |
| 20260507010514 | 59 | 268 | 8.0 | 11.0 | 0.00 | 0.28 | 0.28 | 90 | 1011.9 |
| 20260507010011 | 59 | 275 | 12.0 | 16.0 | 0.00 | 0.28 | 0.28 | 89 | 1011.9 |
| 20260507005509 | 59 | 285 | 10.0 | 12.0 | 0.00 | 0.28 | 0.28 | 90 | 1011.6 |
| 20260507005005 | 59 | 281 | 10.0 | 15.0 | 0.00 | 0.28 | 0.28 | 89 | 1011.6 |
| 20260507004502 | 60 | 292 | 12.0 | 17.0 | 0.00 | 0.28 | 0.28 | 90 | 1011.5 |
| 20260507003959 | 60 | 293 | 9.0 | 12.0 | 0.00 | 0.28 | 0.28 | 90 | 1011.7 |
| 20260507003454 | 60 | 278 | 8.0 | 13.0 | 0.00 | 0.28 | 0.28 | 91 | 1011.6 |
| 20260507002949 | 60 | 281 | 9.0 | 11.0 | 0.00 | 0.28 | 0.28 | 92 | 1011.6 |
| 20260507002447 | 61 | 285 | 7.0 | 11.0 | 0.00 | 0.28 | 0.28 | 92 | 1011.5 |
| 20260507001943 | 61 | 292 | 15.0 | 17.0 | 0.00 | 0.28 | 0.28 | 92 | 1011.3 |
| 20260507001439 | 61 | 278 | 12.0 | 17.0 | 0.00 | 0.28 | 0.28 | 94 | 1011.2 |
| 20260507000937 | 62 | 292 | 13.0 | 15.0 | 0.00 | 0.28 | 0.28 | 95 | 1010.8 |
| 20260507000435 | 62 | 290 | 11.0 | 13.0 | 0.00 | 0.28 | 0.28 | 96 | 1010.7 |
| 20260506235928 | 62 | 285 | 10.0 | 13.0 | 0.00 | 0.28 | 0.28 | 96 | 1010.6 |
| 20260506235426 | 62 | 286 | 7.0 | 15.0 | 0.00 | 0.28 | 0.28 | 96 | 1010.5 |
| 20260506234921 | 62 | 254 | 0.0 | 8.0 | 0.00 | 0.28 | 0.28 | 95 | 1010.2 |
| 20260506234420 | 62 | 261 | 8.0 | 9.0 | 0.00 | 0.28 | 0.28 | 95 | 1010.3 |
| 20260506233917 | 62 | 273 | 7.0 | 8.0 | 0.00 | 0.28 | 0.28 | 95 | 1010.2 |
| 20260506233413 | 62 | 226 | 0.0 | 10.0 | 0.00 | 0.28 | 0.28 | 95 | 1010.1 |
| 20260506232910 | 62 | 181 | 7.0 | 15.0 | 0.02 | 0.28 | 0.28 | 95 | 1010.1 |
| 20260506232406 | 62 | 224 | 10.0 | 13.0 | 0.05 | 0.28 | 0.28 | 94 | 1010.3 |
| 20260506231902 | 63 | 256 | 9.0 | 9.0 | 0.07 | 0.27 | 0.27 | 94 | 1010.2 |
| 20260506231400 | 63 | 235 | 0.0 | 12.0 | 0.14 | 0.27 | 0.27 | 93 | 1010.2 |
| 20260506230857 | 63 | 250 | 6.0 | 17.0 | 0.12 | 0.26 | 0.26 | 93 | 1010.3 |
| 20260506230353 | 63 | 252 | 6.0 | 12.0 | 0.00 | 0.24 | 0.24 | 92 | 1010.3 |
| 20260506225849 | 64 | 275 | 11.0 | 13.0 | 0.05 | 0.24 | 0.24 | 92 | 1010.2 |
| 20260506225347 | 64 | 259 | 10.0 | 41.0 | 0.09 | 0.24 | 0.24 | 91 | 1009.9 |
| 20260506224844 | 64 | 279 | 9.0 | 19.0 | 0.09 | 0.23 | 0.23 | 89 | 1010.1 |
| 20260506224341 | 64 | 250 | 9.0 | 10.0 | 0.07 | 0.22 | 0.22 | 90 | 1010.0 |
| 20260506223837 | 65 | 244 | 0.0 | 9.0 | 0.02 | 0.22 | 0.22 | 89 | 1010.0 |
| 20260506223333 | 65 | 249 | 7.0 | 10.0 | 0.00 | 0.21 | 0.21 | 88 | 1010.2 |
| 20260506222830 | 65 | 227 | 0.0 | 9.0 | 0.00 | 0.21 | 0.21 | 87 | 1010.0 |
| 20260506222326 | 65 | 217 | 0.0 | 10.0 | 0.00 | 0.21 | 0.21 | 87 | 1009.7 |
| 20260506221824 | 66 | 243 | 6.0 | 12.0 | 0.00 | 0.21 | 0.21 | 85 | 1010.0 |
| 20260506221321 | 66 | 251 | 8.0 | 10.0 | 0.00 | 0.21 | 0.21 | 85 | 1010.1 |
| 20260506220819 | 66 | 248 | 8.0 | 10.0 | 0.00 | 0.21 | 0.21 | 84 | 1010.0 |
| 20260506220319 | 66 | 244 | 7.0 | 17.0 | 0.00 | 0.21 | 0.21 | 84 | 1009.9 |
| 20260506215816 | 66 | 227 | 0.0 | 10.0 | 0.00 | 0.21 | 0.21 | 84 | 1009.9 |
| 20260506215312 | 66 | 272 | 9.0 | 16.0 | 0.00 | 0.21 | 0.21 | 83 | 1009.7 |
| 20260506214808 | 66 | 261 | 7.0 | 10.0 | 0.00 | 0.21 | 0.21 | 84 | 1009.6 |
| 20260506214305 | 66 | 256 | 0.0 | 12.0 | 0.00 | 0.21 | 0.21 | 83 | 1009.7 |
| 20260506213804 | 66 | 234 | 12.0 | 12.0 | 0.00 | 0.21 | 0.21 | 83 | 1009.5 |
| 20260506213300 | 66 | 222 | 10.0 | 13.0 | 0.00 | 0.21 | 0.21 | 83 | 1009.4 |
| 20260506212758 | 67 | 228 | 12.0 | 15.0 | 0.00 | 0.21 | 0.21 | 82 | 1009.6 |
| 20260506212253 | 67 | 248 | 15.0 | 15.0 | 0.00 | 0.21 | 0.21 | 81 | 1009.6 |
| 20260506211748 | 67 | 267 | 0.0 | 12.0 | 0.00 | 0.21 | 0.21 | 82 | 1009.5 |
| 20260506211245 | 68 | 247 | 8.0 | 26.0 | 0.00 | 0.21 | 0.21 | 80 | 1009.2 |
| 20260506210742 | 68 | 271 | 7.0 | 15.0 | 0.00 | 0.21 | 0.21 | 80 | 1009.5 |
| 20260506210239 | 68 | 258 | 8.0 | 12.0 | 0.00 | 0.21 | 0.21 | 80 | 1009.3 |
| 20260506205736 | 68 | 208 | 11.0 | 16.0 | 0.00 | 0.21 | 0.21 | 79 | 1009.2 |
| 20260506205232 | 68 | 184 | 0.0 | 10.0 | 0.00 | 0.21 | 0.21 | 80 | 1009.1 |
| 20260506204729 | 68 | 270 | 10.0 | 12.0 | 0.00 | 0.21 | 0.21 | 79 | 1009.2 |
| 20260506204226 | 69 | 230 | 11.0 | 32.0 | 0.00 | 0.21 | 0.21 | 78 | 1009.2 |
| 20260506203724 | 68 | 268 | 9.0 | 17.0 | 0.00 | 0.21 | 0.21 | 78 | 1009.0 |
| 20260506203221 | 68 | 281 | 10.0 | 17.0 | 0.00 | 0.21 | 0.21 | 81 | 1009.3 |
| 20260506202719 | 67 | 254 | 9.0 | 22.0 | 0.00 | 0.21 | 0.21 | 82 | 1009.3 |
| 20260506202215 | 68 | 209 | 27.0 | 27.0 | 0.00 | 0.21 | 0.21 | 79 | 1009.0 |
| 20260506201712 | 67 | 199 | 0.0 | 22.0 | 0.00 | 0.21 | 0.21 | 81 | 1009.4 |
| 20260506201208 | 67 | 245 | 8.0 | 16.0 | 0.00 | 0.21 | 0.21 | 82 | 1009.3 |
| 20260506200705 | 67 | 234 | 21.0 | 21.0 | 0.00 | 0.21 | 0.21 | 82 | 1009.4 |
| 20260506200202 | 67 | 256 | 9.0 | 28.0 | 0.00 | 0.21 | 0.21 | 82 | 1009.3 |
| 20260506195658 | 66 | 226 | 16.0 | 23.0 | 0.00 | 0.21 | 0.21 | 82 | 1009.3 |
| 20260506195155 | 66 | 263 | 9.0 | 18.0 | 0.00 | 0.21 | 0.21 | 84 | 1009.2 |
| 20260506194652 | 66 | 177 | 17.0 | 39.0 | 0.00 | 0.21 | 0.21 | 82 | 1009.5 |
| 20260506194148 | 66 | 204 | 19.0 | 30.0 | 0.00 | 0.21 | 0.21 | 81 | 1009.5 |
| 20260506193646 | 67 | 235 | 16.0 | 16.0 | 0.00 | 0.21 | 0.21 | 81 | 1009.7 |
| 20260506193143 | 67 | 269 | 12.0 | 26.0 | 0.00 | 0.21 | 0.21 | 82 | 1009.4 |
| 20260506192640 | 66 | 166 | 16.0 | 34.0 | 0.00 | 0.21 | 0.21 | 83 | 1009.4 |
| 20260506192136 | 66 | 209 | 11.0 | 16.0 | 0.00 | 0.21 | 0.21 | 85 | 1009.3 |
| 20260506191633 | 65 | 236 | 6.0 | 13.0 | 0.00 | 0.21 | 0.21 | 85 | 1009.3 |
| 20260506191129 | 65 | 219 | 7.0 | 17.0 | 0.00 | 0.21 | 0.21 | 86 | 1009.4 |
| 20260506190627 | 65 | 208 | 17.0 | 23.0 | 0.00 | 0.21 | 0.21 | 84 | 1009.7 |
| 20260506190123 | 65 | 195 | 13.0 | 16.0 | 0.00 | 0.21 | 0.21 | 86 | 1009.5 |
| 20260506185620 | 65 | 207 | 21.0 | 23.0 | 0.00 | 0.21 | 0.21 | 86 | 1009.6 |
| 20260506185116 | 65 | 202 | 16.0 | 30.0 | 0.00 | 0.21 | 0.21 | 86 | 1009.6 |
| 20260506184614 | 65 | 233 | 21.0 | 39.0 | 0.00 | 0.21 | 0.21 | 85 | 1009.5 |
| 20260506184111 | 64 | 218 | 39.0 | 40.0 | 0.00 | 0.21 | 0.21 | 86 | 1009.8 |
| 20260506183608 | 64 | 218 | 32.0 | 39.0 | 0.00 | 0.21 | 0.21 | 87 | 1009.9 |
| 20260506183104 | 64 | 212 | 21.0 | 38.0 | 0.00 | 0.21 | 0.21 | 87 | 1009.9 |
| 20260506182601 | 63 | 197 | 15.0 | 37.0 | 0.00 | 0.21 | 0.21 | 89 | 1009.9 |
| 20260506182058 | 63 | 238 | 21.0 | 40.0 | 0.00 | 0.21 | 0.21 | 89 | 1010.1 |
| 20260506181556 | 63 | 214 | 23.0 | 29.0 | 0.00 | 0.21 | 0.21 | 90 | 1010.1 |
| 20260506181053 | 62 | 209 | 19.0 | 22.0 | 0.00 | 0.21 | 0.21 | 91 | 1010.1 |
| 20260506180549 | 62 | 217 | 29.0 | 30.0 | 0.00 | 0.21 | 0.21 | 91 | 1010.1 |
| 20260506180046 | 62 | 211 | 11.0 | 20.0 | 0.00 | 0.21 | 0.21 | 91 | 1010.1 |
| 20260506175542 | 62 | 228 | 16.0 | 28.0 | 0.00 | 0.21 | 0.21 | 91 | 1010.0 |
| 20260506175039 | 62 | 212 | 27.0 | 34.0 | 0.00 | 0.21 | 0.21 | 90 | 1010.1 |
| 20260506174538 | 62 | 217 | 16.0 | 34.0 | 0.00 | 0.21 | 0.21 | 92 | 1010.3 |
| 20260506174033 | 62 | 192 | 15.0 | 31.0 | 0.00 | 0.21 | 0.21 | 92 | 1010.3 |
| 20260506173531 | 62 | 218 | 15.0 | 25.0 | 0.00 | 0.21 | 0.21 | 92 | 1010.2 |
| 20260506173028 | 62 | 251 | 16.0 | 23.0 | 0.00 | 0.21 | 0.21 | 92 | 1010.3 |
| 20260506172526 | 61 | 225 | 20.0 | 43.0 | 0.00 | 0.21 | 0.21 | 92 | 1009.9 |
| 20260506172021 | 61 | 255 | 12.0 | 29.0 | 0.00 | 0.21 | 0.21 | 93 | 1010.0 |
| 20260506171519 | 61 | 222 | 22.0 | 32.0 | 0.00 | 0.21 | 0.21 | 93 | 1010.3 |
| 20260506171017 | 61 | 253 | 18.0 | 29.0 | 0.00 | 0.21 | 0.21 | 93 | 1010.2 |
| 20260506170514 | 61 | 224 | 22.0 | 32.0 | 0.00 | 0.21 | 0.21 | 94 | 1010.2 |
| 20260506170006 | 61 | 253 | 20.0 | 39.0 | 0.00 | 0.21 | 0.21 | 93 | 1010.1 |
| 20260506165504 | 61 | 236 | 17.0 | 36.0 | 0.00 | 0.21 | 0.21 | 93 | 1010.1 |
| 20260506165000 | 61 | 231 | 28.0 | 39.0 | 0.00 | 0.21 | 0.21 | 93 | 1010.0 |
| 20260506164456 | 61 | 227 | 34.0 | 45.0 | 0.00 | 0.21 | 0.21 | 94 | 1010.3 |
| 20260506163954 | 61 | 230 | 21.0 | 38.0 | 0.00 | 0.21 | 0.21 | 94 | 1010.1 |
| 20260506163449 | 61 | 215 | 36.0 | 55.0 | 0.00 | 0.21 | 0.21 | 94 | 1010.1 |
| 20260506162944 | 61 | 221 | 39.0 | 47.0 | 0.00 | 0.21 | 0.21 | 95 | 1010.0 |
| 20260506162442 | 61 | 231 | 23.0 | 40.0 | 0.00 | 0.21 | 0.21 | 95 | 1010.3 |
| 20260506161939 | 61 | 226 | 31.0 | 36.0 | 0.00 | 0.21 | 0.21 | 95 | 1010.2 |
| 20260506161437 | 61 | 234 | 39.0 | 43.0 | 0.00 | 0.21 | 0.21 | 96 | 1010.3 |
| 20260506160934 | 61 | 232 | 17.0 | 32.0 | 0.00 | 0.21 | 0.21 | 96 | 1010.4 |
| 20260506160432 | 61 | 235 | 23.0 | 27.0 | 0.00 | 0.21 | 0.21 | 96 | 1010.1 |
| 20260506155929 | 61 | 222 | 27.0 | 36.0 | 0.02 | 0.21 | 0.21 | 96 | 1010.3 |
| 20260506155427 | 61 | 214 | 25.0 | 40.0 | 0.05 | 0.21 | 0.21 | 95 | 1010.3 |
| 20260506153548 | 60 | 210 | 32.0 | 54.0 | 0.05 | 0.20 | 0.20 | 95 | 1009.9 |
| 20260506153045 | 60 | 186 | 23.0 | 40.0 | 0.07 | 0.19 | 0.19 | 95 | 1010.1 |
| 20260506152542 | 60 | 220 | 23.0 | 41.0 | 0.07 | 0.19 | 0.19 | 95 | 1010.4 |
| 20260506152040 | 60 | 215 | 21.0 | 30.0 | 0.07 | 0.18 | 0.18 | 95 | 1010.6 |
| 20260506151538 | 60 | 214 | 27.0 | 29.0 | 0.09 | 0.18 | 0.18 | 95 | 1010.8 |
| 20260506151035 | 60 | 261 | 9.0 | 26.0 | 0.05 | 0.17 | 0.17 | 95 | 1010.9 |
| 20260506150531 | 60 | 200 | 18.0 | 25.0 | 0.07 | 0.16 | 0.16 | 95 | 1011.0 |
| 20260506150028 | 60 | 225 | 19.0 | 21.0 | 0.07 | 0.16 | 0.16 | 95 | 1011.1 |
| 20260506145525 | 60 | 258 | 18.0 | 27.0 | 0.07 | 0.15 | 0.15 | 94 | 1011.0 |
| 20260506145023 | 60 | 210 | 19.0 | 22.0 | 0.05 | 0.14 | 0.14 | 94 | 1011.5 |
| 20260506144519 | 60 | 205 | 17.0 | 20.0 | 0.05 | 0.14 | 0.14 | 94 | 1011.2 |
| 20260506144017 | 60 | 243 | 20.0 | 28.0 | 0.07 | 0.13 | 0.13 | 93 | 1011.3 |
| 20260506143514 | 61 | 228 | 25.0 | 30.0 | 0.07 | 0.13 | 0.13 | 93 | 1011.0 |
| 20260506143013 | 61 | 222 | 25.0 | 32.0 | 0.09 | 0.12 | 0.12 | 92 | 1011.1 |
| 20260506142510 | 61 | 247 | 17.0 | 57.0 | 0.07 | 0.11 | 0.11 | 92 | 1010.9 |
| 20260506142008 | 61 | 214 | 26.0 | 29.0 | 0.02 | 0.10 | 0.10 | 93 | 1010.8 |
| 20260506141505 | 61 | 214 | 30.0 | 35.0 | 0.09 | 0.10 | 0.10 | 92 | 1010.8 |
| 20260506141004 | 61 | 270 | 25.0 | 39.0 | 0.07 | 0.09 | 0.09 | 92 | 1010.8 |
| 20260506140500 | 61 | 212 | 36.0 | 41.0 | 0.09 | 0.09 | 0.09 | 92 | 1010.8 |
| 20260506135957 | 61 | 227 | 17.0 | 30.0 | 0.12 | 0.08 | 0.08 | 92 | 1010.5 |
| 20260506135454 | 61 | 216 | 31.0 | 31.0 | 0.14 | 0.07 | 0.07 | 91 | 1010.7 |
| 20260506134950 | 61 | 213 | 20.0 | 20.0 | 0.12 | 0.06 | 0.06 | 90 | 1010.8 |
| 20260506134446 | 61 | 225 | 18.0 | 27.0 | 0.07 | 0.05 | 0.05 | 89 | 1010.7 |
| 20260506133943 | 61 | 228 | 20.0 | 22.0 | 0.05 | 0.04 | 0.04 | 89 | 1011.1 |
| 20260506133440 | 61 | 225 | 16.0 | 17.0 | 0.00 | 0.04 | 0.04 | 89 | 1011.1 |
| 20260506132937 | 61 | 226 | 19.0 | 21.0 | 0.00 | 0.04 | 0.04 | 89 | 1011.0 |
| 20260506132434 | 61 | 202 | 13.0 | 19.0 | 0.00 | 0.04 | 0.04 | 89 | 1011.1 |
| 20260506131932 | 62 | 224 | 17.0 | 32.0 | 0.02 | 0.04 | 0.04 | 88 | 1010.8 |
| 20260506131428 | 62 | 220 | 30.0 | 30.0 | 0.02 | 0.03 | 0.03 | 88 | 1010.7 |
| 20260506130925 | 62 | 217 | 22.0 | 27.0 | 0.05 | 0.03 | 0.03 | 87 | 1010.9 |
| 20260506130421 | 62 | 201 | 13.0 | 16.0 | 0.02 | 0.03 | 0.03 | 88 | 1011.1 |
| 20260506125920 | 62 | 224 | 12.0 | 18.0 | 0.02 | 0.02 | 0.02 | 88 | 1011.2 |
| 20260506125418 | 62 | 215 | 10.0 | 16.0 | 0.00 | 0.02 | 0.02 | 87 | 1011.2 |
| 20260506124916 | 61 | 234 | 12.0 | 18.0 | 0.00 | 0.02 | 0.02 | 86 | 1011.1 |
| 20260506124413 | 62 | 212 | 11.0 | 17.0 | 0.02 | 0.02 | 0.02 | 86 | 1011.1 |
| 20260506123911 | 62 | 236 | 11.0 | 20.0 | 0.02 | 0.02 | 0.02 | 85 | 1011.2 |
| 20260506123408 | 62 | 201 | 12.0 | 17.0 | 0.02 | 0.02 | 0.02 | 85 | 1011.2 |
| 20260506122905 | 62 | 237 | 10.0 | 17.0 | 0.02 | 0.02 | 0.02 | 84 | 1011.4 |
| 20260506122402 | 62 | 224 | 9.0 | 18.0 | 0.00 | 0.01 | 0.01 | 83 | 1011.4 |
| 20260506121901 | 62 | 232 | 13.0 | 21.0 | 0.00 | 0.01 | 0.01 | 83 | 1011.4 |
| 20260506121357 | 62 | 240 | 9.0 | 20.0 | 0.02 | 0.01 | 0.01 | 83 | 1011.5 |
| 20260506120854 | 62 | 228 | 20.0 | 23.0 | 0.02 | 0.01 | 0.01 | 83 | 1011.3 |
| 20260506120351 | 62 | 228 | 17.0 | 21.0 | 0.00 | 0.01 | 0.01 | 83 | 1011.2 |
| 20260506115849 | 62 | 217 | 20.0 | 23.0 | 0.02 | 0.01 | 0.01 | 83 | 1010.9 |
| 20260506115347 | 62 | 217 | 18.0 | 26.0 | 0.02 | 0.01 | 0.01 | 83 | 1011.1 |
| 20260506114845 | 62 | 223 | 21.0 | 23.0 | 0.02 | 0.00 | 0.00 | 82 | 1011.0 |
| 20260506114342 | 62 | 223 | 13.0 | 21.0 | 0.02 | 0.00 | 0.00 | 82 | 1010.9 |
| 20260506113841 | 62 | 214 | 21.0 | 26.0 | 0.00 | 0.00 | 0.00 | 81 | 1010.8 |
| 20260506113338 | 62 | 206 | 8.0 | 23.0 | 0.00 | 0.00 | 0.00 | 81 | 1010.8 |
| 20260506112834 | 62 | 212 | 18.0 | 25.0 | 0.00 | 0.00 | 0.00 | 80 | 1010.8 |
| 20260506112332 | 62 | 219 | 18.0 | 29.0 | 0.00 | 0.00 | 0.00 | 80 | 1010.7 |
| 20260506111829 | 63 | 232 | 15.0 | 32.0 | 0.00 | 0.00 | 0.00 | 79 | 1010.7 |
| 20260506111327 | 63 | 219 | 11.0 | 32.0 | 0.00 | 0.00 | 0.00 | 78 | 1010.4 |
| 20260506110824 | 63 | 214 | 17.0 | 36.0 | 0.00 | 0.00 | 0.00 | 77 | 1010.5 |
| 20260506110321 | 63 | 222 | 20.0 | 36.0 | 0.00 | 0.00 | 0.00 | 76 | 1010.5 |
| 20260506105818 | 64 | 237 | 19.0 | 37.0 | 0.00 | 0.00 | 0.00 | 75 | 1010.5 |
| 20260506105315 | 64 | 220 | 21.0 | 39.0 | 0.00 | 0.00 | 0.00 | 74 | 1010.3 |
| 20260506104812 | 64 | 201 | 23.0 | 31.0 | 0.00 | 0.00 | 0.00 | 74 | 1010.3 |
| 20260506104310 | 64 | 208 | 19.0 | 49.0 | 0.00 | 0.00 | 0.00 | 74 | 1010.4 |
| 20260506103807 | 64 | 219 | 28.0 | 37.0 | 0.00 | 0.00 | 0.00 | 74 | 1010.4 |
| 20260506103305 | 64 | 213 | 38.0 | 41.0 | 0.00 | 0.00 | 0.00 | 73 | 1010.3 |
| 20260506102802 | 64 | 209 | 35.0 | 45.0 | 0.00 | 0.00 | 0.00 | 73 | 1010.3 |
| 20260506102300 | 64 | 217 | 25.0 | 45.0 | 0.00 | 0.00 | 0.00 | 73 | 1010.1 |
| 20260506101757 | 64 | 207 | 35.0 | 43.0 | 0.00 | 0.00 | 0.00 | 72 | 1010.1 |
| 20260506101253 | 64 | 219 | 23.0 | 31.0 | 0.00 | 0.00 | 0.00 | 72 | 1010.1 |
| 20260506100751 | 64 | 207 | 20.0 | 31.0 | 0.00 | 0.00 | 0.00 | 72 | 1010.2 |
| 20260506100249 | 64 | 216 | 28.0 | 30.0 | 0.00 | 0.00 | 0.00 | 71 | 1010.1 |
| 20260506095747 | 64 | 216 | 16.0 | 32.0 | 0.00 | 0.00 | 0.00 | 71 | 1010.0 |
| 20260506095244 | 64 | 216 | 27.0 | 28.0 | 0.00 | 0.00 | 0.00 | 71 | 1010.2 |
| 20260506094740 | 64 | 239 | 22.0 | 26.0 | 0.00 | 0.00 | 0.00 | 71 | 1010.0 |
| 20260506094239 | 64 | 191 | 19.0 | 37.0 | 0.00 | 0.00 | 0.00 | 70 | 1010.0 |
| 20260506093737 | 64 | 228 | 19.0 | 36.0 | 0.00 | 0.00 | 0.00 | 71 | 1010.0 |
| 20260506093234 | 64 | 211 | 20.0 | 25.0 | 0.00 | 0.00 | 0.00 | 70 | 1010.0 |
| 20260506092731 | 64 | 221 | 21.0 | 37.0 | 0.00 | 0.00 | 0.00 | 70 | 1010.0 |
| 20260506092229 | 64 | 216 | 22.0 | 32.0 | 0.00 | 0.00 | 0.00 | 69 | 1010.2 |
| 20260506091726 | 64 | 210 | 29.0 | 31.0 | 0.00 | 0.00 | 0.00 | 69 | 1009.9 |
| 20260506091224 | 64 | 216 | 35.0 | 36.0 | 0.00 | 0.00 | 0.00 | 69 | 1010.0 |
| 20260506090721 | 63 | 219 | 25.0 | 25.0 | 0.00 | 0.00 | 0.00 | 70 | 1010.3 |
| 20260506090218 | 63 | 218 | 16.0 | 21.0 | 0.00 | 0.00 | 0.00 | 69 | 1010.3 |
| 20260506085715 | 63 | 208 | 19.0 | 27.0 | 0.00 | 0.00 | 0.00 | 69 | 1010.4 |
| 20260506085211 | 63 | 238 | 10.0 | 17.0 | 0.00 | 0.00 | 0.00 | 68 | 1010.4 |
| 20260506084708 | 63 | 185 | 10.0 | 15.0 | 0.00 | 0.00 | 0.00 | 67 | 1010.3 |
| 20260506084204 | 63 | 200 | 8.0 | 12.0 | 0.00 | 0.00 | 0.00 | 68 | 1010.4 |
| 20260506083701 | 63 | 185 | 10.0 | 16.0 | 0.00 | 0.00 | 0.00 | 68 | 1010.5 |
| 20260506083159 | 63 | 184 | 7.0 | 8.0 | 0.00 | 0.00 | 0.00 | 68 | 1010.3 |
| 20260506082656 | 64 | 214 | 0.0 | 8.0 | 0.00 | 0.00 | 0.00 | 68 | 1010.3 |
| 20260506082150 | 64 | 158 | 9.0 | 10.0 | 0.00 | 0.00 | 0.00 | 66 | 1010.2 |
| 20260506081649 | 64 | 189 | 12.0 | 15.0 | 0.00 | 0.00 | 0.00 | 66 | 1010.2 |
| 20260506081146 | 63 | 196 | 8.0 | 13.0 | 0.00 | 0.00 | 0.00 | 67 | 1010.4 |
| 20260506080644 | 63 | 241 | 6.0 | 6.0 | 0.00 | 0.00 | 0.00 | 70 | 1010.2 |
| 20260506080140 | 64 | 258 | 0.0 | 10.0 | 0.00 | 0.00 | 0.00 | 68 | 1010.3 |
| 20260506073124 | 65 | 214 | 11.0 | 13.0 | 0.00 | 0.00 | 0.00 | 63 | 1010.4 |
| 20260506072620 | 65 | 217 | 10.0 | 17.0 | 0.00 | 0.00 | 0.00 | 62 | 1010.4 |
| 20260506072119 | 66 | 269 | 0.0 | 11.0 | 0.00 | 0.00 | 0.00 | 62 | 1010.5 |
| 20260506071616 | 66 | 219 | 15.0 | 20.0 | 0.00 | 0.00 | 0.00 | 61 | 1010.6 |
| 20260506071114 | 66 | 217 | 12.0 | 19.0 | 0.00 | 0.00 | 0.00 | 60 | 1010.7 |
| 20260506070610 | 66 | 225 | 11.0 | 17.0 | 0.00 | 0.00 | 0.00 | 60 | 1010.5 |
| 20260506070108 | 66 | 226 | 12.0 | 21.0 | 0.00 | 0.00 | 0.00 | 60 | 1010.5 |
| 20260506062045 | 65 | 217 | 10.0 | 19.0 | 0.00 | 0.00 | 0.00 | 59 | 1011.3 |
| 20260506061540 | 65 | 203 | 11.0 | 20.0 | 0.00 | 0.00 | 0.00 | 59 | 1011.0 |
| 20260506061038 | 65 | 213 | 11.0 | 15.0 | 0.00 | 0.00 | 0.00 | 59 | 1011.2 |
| 20260506060537 | 65 | 239 | 11.0 | 17.0 | 0.00 | 0.00 | 0.00 | 59 | 1011.2 |
| 20260506051005 | 66 | 201 | 9.0 | 22.0 | 0.00 | 0.00 | 0.00 | 56 | 1011.6 |
| 20260506050503 | 65 | 208 | 10.0 | 18.0 | 0.00 | 0.00 | 0.00 | 57 | 1011.5 |
| 20260506044953 | 65 | 238 | 13.0 | 19.0 | 0.00 | 0.00 | 0.00 | 56 | 1011.7 |
| 20260506044452 | 66 | 231 | 10.0 | 15.0 | 0.00 | 0.00 | 0.00 | 57 | 1011.6 |
| 20260506043948 | 65 | 249 | 10.0 | 16.0 | 0.00 | 0.00 | 0.00 | 55 | 1011.5 |
| 20260506043445 | 65 | 212 | 17.0 | 17.0 | 0.00 | 0.00 | 0.00 | 56 | 1011.7 |
| 20260506042943 | 65 | 213 | 17.0 | 20.0 | 0.00 | 0.00 | 0.00 | 55 | 1011.6 |
| 20260506042442 | 66 | 222 | 15.0 | 18.0 | 0.00 | 0.00 | 0.00 | 55 | 1011.6 |
| 20260506041940 | 66 | 218 | 20.0 | 21.0 | 0.00 | 0.00 | 0.00 | 54 | 1011.8 |
| 20260506041438 | 66 | 227 | 16.0 | 20.0 | 0.00 | 0.00 | 0.00 | 54 | 1011.6 |
| 20260506040935 | 66 | 219 | 16.0 | 21.0 | 0.00 | 0.00 | 0.00 | 55 | 1011.7 |
| 20260506040432 | 66 | 242 | 12.0 | 21.0 | 0.00 | 0.00 | 0.00 | 54 | 1011.7 |
| 20260506035928 | 66 | 216 | 16.0 | 22.0 | 0.00 | 0.00 | 0.00 | 54 | 1011.7 |
| 20260506035426 | 66 | 230 | 11.0 | 18.0 | 0.00 | 0.00 | 0.00 | 54 | 1011.7 |
| 20260506034922 | 66 | 228 | 15.0 | 16.0 | 0.00 | 0.00 | 0.00 | 53 | 1011.8 |
| 20260506034419 | 66 | 217 | 15.0 | 20.0 | 0.00 | 0.00 | 0.00 | 53 | 1011.9 |
| 20260506033916 | 66 | 217 | 13.0 | 21.0 | 0.00 | 0.00 | 0.00 | 53 | 1011.4 |
| 20260506033414 | 66 | 198 | 11.0 | 22.0 | 0.00 | 0.00 | 0.00 | 53 | 1011.5 |
| 20260506032910 | 66 | 206 | 11.0 | 17.0 | 0.00 | 0.00 | 0.00 | 53 | 1011.7 |
| 20260506032407 | 66 | 214 | 20.0 | 20.0 | 0.00 | 0.00 | 0.00 | 52 | 1011.7 |
| 20260506031904 | 66 | 217 | 8.0 | 15.0 | 0.00 | 0.00 | 0.00 | 51 | 1011.5 |
| 20260506031401 | 67 | 189 | 13.0 | 17.0 | 0.00 | 0.00 | 0.00 | 51 | 1011.7 |
| 20260506030859 | 66 | 197 | 8.0 | 16.0 | 0.00 | 0.00 | 0.00 | 50 | 1011.6 |
| 20260506030357 | 66 | 208 | 12.0 | 17.0 | 0.00 | 0.00 | 0.00 | 50 | 1011.6 |
| 20260506025853 | 67 | 239 | 10.0 | 11.0 | 0.00 | 0.00 | 0.00 | 50 | 1011.7 |
| 20260506025350 | 66 | 192 | 8.0 | 13.0 | 0.00 | 0.00 | 0.00 | 50 | 1011.6 |
| 20260506024847 | 65 | 206 | 12.0 | 15.0 | 0.00 | 0.00 | 0.00 | 52 | 1011.7 |
| 20260506024344 | 64 | 214 | 11.0 | 12.0 | 0.00 | 0.00 | 0.00 | 55 | 1011.8 |
| 20260506023840 | 65 | 221 | 0.0 | 7.0 | 0.00 | 0.00 | 0.00 | 54 | 1011.7 |
| 20260506023337 | 65 | 245 | 0.0 | 0.0 | 0.00 | 0.00 | 0.00 | 53 | 1011.6 |
| 20260506022834 | 65 | 251 | 0.0 | 15.0 | 0.00 | 0.00 | 0.00 | 51 | 1011.6 |
| 20260506022331 | 65 | 269 | 6.0 | 9.0 | 0.00 | 0.00 | 0.00 | 52 | 1011.7 |
| 20260506021829 | 66 | 245 | 0.0 | 0.0 | 0.00 | 0.00 | 0.00 | 51 | 1011.6 |
| 20260506021326 | 67 | 283 | 0.0 | 9.0 | 0.00 | 0.00 | 0.00 | 49 | 1011.7 |
| 20260506020822 | 67 | 261 | 0.0 | 6.0 | 0.00 | 0.00 | 0.00 | 48 | 1011.6 |
| 20260506020320 | 67 | 242 | 7.0 | 11.0 | 0.00 | 0.00 | 0.00 | 47 | 1011.5 |
| 20260506015818 | 67 | 209 | 13.0 | 13.0 | 0.00 | 0.00 | 0.00 | 46 | 1011.5 |
| 20260506015315 | 68 | 233 | 0.0 | 8.0 | 0.00 | 0.00 | 0.00 | 46 | 1011.4 |
| 20260506014812 | 68 | 230 | 0.0 | 7.0 | 0.00 | 0.00 | 0.00 | 45 | 1011.5 |
| 20260506014309 | 70 | 214 | 0.0 | 0.0 | 0.00 | 0.00 | 0.00 | 44 | 1011.4 |
| 20260506013805 | 71 | 215 | 6.0 | 13.0 | 0.00 | 0.00 | 0.00 | 41 | 1011.4 |
| 20260506013303 | 71 | 217 | 9.0 | 16.0 | 0.00 | 0.00 | 0.00 | 39 | 1011.4 |
| 20260506012759 | 71 | 215 | 13.0 | 23.0 | 0.00 | 0.00 | 0.00 | 39 | 1011.2 |
| 20260506012256 | 71 | 220 | 19.0 | 21.0 | 0.00 | 0.00 | 0.00 | 39 | 1011.2 |
| 20260506011753 | 71 | 214 | 13.0 | 20.0 | 0.00 | 0.00 | 0.00 | 39 | 1011.1 |
| 20260506011249 | 71 | 275 | 13.0 | 25.0 | 0.00 | 0.00 | 0.00 | 39 | 1011.1 |